TimePST,TemperatureF,Dew PointF,Humidity,Sea Level PressureIn,VisibilityMPH,Wind Direction,Wind SpeedMPH,Gust SpeedMPH,PrecipitationIn,Events,Conditions,WindDirDegrees,DateUTC
12:23 AM,28.4,28.4,100,30.35,0.2,Calm,Calm,-,N/A,Fog,Light Freezing Fog,0,2013-01-20 08:23:00
12:54 AM,28.9,28.9,100,30.36,0.2,Calm,Calm,-,N/A,Fog,Light Freezing Fog,0,2013-01-20 08:54:00
1:54 AM,28.9,28.9,100,30.36,0.2,Calm,Calm,-,N/A,Fog,Light Freezing Fog,0,2013-01-20 09:54:00
2:54 AM,28.9,28.0,96,30.37,0.5,NE,5.8,-,N/A,Fog,Light Freezing Fog,50,2013-01-20 10:54:00
3:01 AM,28.4,28.4,100,30.35,0.5,ENE,4.6,-,N/A,Fog,Light Freezing Fog,60,2013-01-20 11:01:00
3:52 AM,28.4,28.4,100,30.35,0.2,North,4.6,-,N/A,Fog,Light Freezing Fog,10,2013-01-20 11:52:00
3:54 AM,28.9,28.0,96,30.36,0.2,North,3.5,-,N/A,Fog,Light Freezing Fog,10,2013-01-20 11:54:00
4:03 AM,28.4,28.4,100,30.35,0.5,NNW,3.5,-,N/A,Fog,Light Freezing Fog,340,2013-01-20 12:03:00
4:10 AM,28.4,28.4,100,30.35,0.5,NNW,3.5,-,N/A,Fog,Light Freezing Fog,330,2013-01-20 12:10:00
4:24 AM,28.4,28.4,100,30.35,0.5,North,3.5,-,N/A,Fog,Light Freezing Fog,360,2013-01-20 12:24:00
4:54 AM,28.9,28.0,96,30.36,0.2,NE,4.6,-,N/A,Fog,Light Freezing Fog,40,2013-01-20 12:54:00
5:15 AM,28.4,28.4,100,30.34,0.5,NE,3.5,-,N/A,Fog,Light Freezing Fog,50,2013-01-20 13:15:00
5:27 AM,28.4,28.4,100,30.34,0.5,Calm,Calm,-,N/A,Fog,Light Freezing Fog,0,2013-01-20 13:27:00
5:54 AM,28.9,28.0,96,30.35,0.5,Calm,Calm,-,N/A,Fog,Light Freezing Fog,0,2013-01-20 13:54:00
6:01 AM,28.4,28.4,100,30.33,0.2,Calm,Calm,-,N/A,Fog,Light Freezing Fog,0,2013-01-20 14:01:00
6:54 AM,28.9,28.0,96,30.35,0.2,NE,3.5,-,N/A,Fog,Light Freezing Fog,40,2013-01-20 14:54:00
7:54 AM,28.0,28.0,100,30.35,0.2,Calm,Calm,-,N/A,Fog,Light Freezing Fog,0,2013-01-20 15:54:00
8:10 AM,28.4,28.4,100,30.34,0.2,Calm,Calm,-,N/A,Fog,Light Freezing Fog,0,2013-01-20 16:10:00
8:21 AM,28.4,28.4,100,30.34,0.2,Calm,Calm,-,N/A,Fog,Light Freezing Fog,0,2013-01-20 16:21:00
8:54 AM,28.0,27.0,96,30.36,0.2,Calm,Calm,-,N/A,Fog,Light Freezing Fog,0,2013-01-20 16:54:00
9:54 AM,28.9,28.9,100,30.37,0.2,Calm,Calm,-,N/A,Fog,Light Freezing Fog,0,2013-01-20 17:54:00
10:54 AM,28.9,28.0,96,30.37,0.2,Calm,Calm,-,N/A,Fog,Light Freezing Fog,0,2013-01-20 18:54:00
11:16 AM,28.4,28.4,100,30.35,0.2,North,5.8,-,N/A,Fog,Light Freezing Fog,10,2013-01-20 19:16:00
11:54 AM,30.0,28.9,96,30.35,0.2,Calm,Calm,-,N/A,Fog,Light Freezing Fog,0,2013-01-20 19:54:00
12:54 PM,30.2,28.4,93,30.32,0.2,NNE,4.6,-,N/A,Fog,Light Freezing Fog,20,2013-01-20 20:54:00
1:54 PM,30.9,30.0,96,30.31,0.2,NNW,4.6,-,N/A,Fog,Light Freezing Fog,340,2013-01-20 21:54:00
2:54 PM,30.9,30.0,96,30.30,0.2,NNE,3.5,-,N/A,Fog,Light Freezing Fog,30,2013-01-20 22:54:00
3:31 PM,30.2,28.4,93,30.28,0.1,Variable,3.5,-,N/A,Fog,Light Freezing Fog,0,2013-01-20 23:31:00
3:51 PM,30.2,28.4,93,30.28,0.2,Calm,Calm,-,N/A,Fog,Light Freezing Fog,0,2013-01-20 23:51:00
3:54 PM,30.0,28.9,96,30.29,0.2,Calm,Calm,-,N/A,Fog,Light Freezing Fog,0,2013-01-20 23:54:00
4:54 PM,30.0,30.0,100,30.28,0.1,Calm,Calm,-,N/A,Fog,Light Freezing Fog,0,2013-01-21 00:54:00
5:54 PM,30.0,28.9,96,30.27,0.1,NNE,4.6,-,N/A,Fog,Light Freezing Fog,20,2013-01-21 01:54:00
6:16 PM,30.2,28.4,93,30.27,0.2,Calm,Calm,-,N/A,Fog,Light Freezing Fog,0,2013-01-21 02:16:00
6:26 PM,30.2,28.4,93,30.27,0.2,Calm,Calm,-,N/A,Fog,Light Freezing Fog,0,2013-01-21 02:26:00
6:54 PM,30.0,28.9,96,30.28,0.2,Calm,Calm,-,N/A,Fog,Light Freezing Fog,0,2013-01-21 02:54:00
7:20 PM,30.2,28.4,93,30.28,0.5,NNE,3.5,-,N/A,Fog,Light Freezing Fog,20,2013-01-21 03:20:00
7:54 PM,28.9,28.0,96,30.29,0.5,Calm,Calm,-,N/A,Fog,Light Freezing Fog,0,2013-01-21 03:54:00
8:12 PM,28.4,28.4,100,30.28,0.2,Calm,Calm,-,N/A,Fog,Light Freezing Fog,0,2013-01-21 04:12:00
8:54 PM,28.9,28.0,96,30.29,0.2,Calm,Calm,-,N/A,Fog,Light Freezing Fog,0,2013-01-21 04:54:00
9:08 PM,28.4,28.4,100,30.28,0.2,Calm,Calm,-,N/A,Fog,Light Freezing Fog,0,2013-01-21 05:08:00
9:39 PM,28.4,28.4,100,30.28,0.2,Calm,Calm,-,N/A,Fog,Light Freezing Fog,0,2013-01-21 05:39:00
9:54 PM,28.9,28.0,96,30.30,0.2,Calm,Calm,-,N/A,Fog,Light Freezing Fog,0,2013-01-21 05:54:00
10:35 PM,28.4,28.4,100,30.28,0.2,Calm,Calm,-,N/A,Fog,Light Freezing Fog,0,2013-01-21 06:35:00
10:54 PM,28.9,28.0,96,30.30,0.2,Calm,Calm,-,N/A,Fog,Light Freezing Fog,0,2013-01-21 06:54:00
11:54 PM,30.0,28.0,92,30.30,0.2,Calm,Calm,-,N/A,Fog,Light Freezing Fog,0,2013-01-21 07:54:00